Date,TemperatureHighF,TemperatureAvgF,TemperatureLowF,DewpointHighF,DewpointAvgF,DewpointLowF,HumidityHigh,HumidityAvg,HumidityLow,PressureMaxIn,PressureMinIn,WindSpeedMaxMPH,WindSpeedAvgMPH,GustSpeedMaxMPH,PrecipitationSumIn
2013-1-1,42.1,39.2,35.8,37.9,31.6,28.8,85,74,66,29.90,29.77,15,7,15,0.00
2013-1-2,43.2,39.1,34.9,38.1,33.7,30.5,86,81,73,30.38,29.87,11,5,11,0.00
2013-1-3,41.9,38.6,34.7,39.0,34.6,29.7,90,85,78,30.38,30.31,14,7,14,0.03
2013-1-4,48.2,45.2,42.1,45.5,42.2,39.0,94,89,81,30.41,30.18,12,6,12,0.23
2013-1-5,48.2,45.8,42.1,45.3,41.6,39.6,93,85,78,30.33,30.17,11,3,11,0.09
2013-1-6,43.6,42.6,42.1,41.0,39.9,38.8,92,90,86,30.32,30.12,11,3,11,0.06
2013-1-7,44.5,41.3,38.9,41.6,39.1,36.7,94,92,88,30.32,30.18,6,1,6,0.14
2013-1-8,42.1,40.6,39.1,40.0,38.6,37.2,94,92,91,30.30,30.15,7,2,7,0.04
2013-1-9,43.2,41.0,39.4,40.8,38.7,36.7,93,92,89,30.18,29.88,8,3,8,0.00
2013-1-10,39.4,37.5,35.6,36.8,34.4,31.8,92,89,84,29.88,29.70,12,6,12,0.03
2013-1-11,35.8,30.8,26.5,33.1,26.2,21.3,92,83,73,30.00,29.69,10,3,10,0.05
2013-1-12,31.5,27.1,21.2,25.3,21.9,17.4,85,81,68,30.04,29.96,8,2,8,0.01
2013-1-13,29.3,25.8,20.9,24.9,21.2,17.0,87,83,74,30.04,29.99,6,1,6,0.03
2013-1-14,29.2,27.1,24.8,26.6,24.2,21.8,91,88,83,29.99,29.86,10,1,10,0.04
2013-1-15,28.1,25.4,20.7,24.8,22.7,17.4,92,89,85,29.89,29.72,4,0,4,0.01
2013-1-16,30.6,27.8,26.6,27.4,25.2,24.2,91,90,85,29.74,29.69,5,0,5,0.02
2013-1-17,28.1,26.6,25.2,25.0,23.8,21.7,91,89,84,29.88,29.71,8,2,8,0.00
2013-1-18,25.2,23.4,21.6,23.1,20.2,18.3,92,87,83,29.87,29.75,4,1,4,0.00
2013-1-24,23.6,22.4,21.2,20.3,18.9,17.6,87,86,85,29.96,29.88,5,1,5,0.00
2013-1-25,23.4,20.0,11.9,19.3,16.2,8.2,87,85,82,30.09,29.95,6,1,6,0.00
2013-1-26,20.5,14.4,6.7,16.1,10.6,3.1,87,85,82,30.04,29.94,9,1,9,0.00
2013-1-27,36.0,28.2,18.5,30.9,24.8,14.7,89,87,81,29.95,29.71,14,3,14,0.04
2013-1-28,37.8,34.7,31.9,33.5,31.8,29.1,93,89,84,30.06,29.73,9,3,9,0.31
2013-1-29,39.6,37.6,35.1,37.7,34.8,32.4,94,90,86,30.05,29.86,13,5,13,0.15
2013-1-30,52.6,46.8,39.6,48.4,44.0,37.7,95,90,85,29.91,29.69,17,7,17,0.25
2013-1-31,45.9,42.1,39.1,41.0,36.1,33.4,88,79,67,29.98,29.77,18,9,18,0.00
2013-2-1,44.1,40.2,37.6,38.3,36.2,34.8,91,86,75,29.85,29.26,13,5,13,0.18
2013-2-2,40.9,37.6,30.6,37.4,33.3,23.7,93,84,72,29.74,29.17,13,3,13,0.05
2013-2-3,38.0,32.1,27.0,30.4,26.7,22.5,88,81,72,29.94,29.74,12,4,12,0.00
2013-2-4,40.0,36.0,32.8,37.4,33.4,29.8,93,90,87,29.80,29.71,18,8,18,0.07
2013-2-5,44.5,38.8,34.2,37.2,34.5,29.5,93,85,72,29.80,29.47,19,5,19,0.01
2013-2-6,42.1,33.6,27.7,31.9,27.6,23.2,88,79,63,29.58,29.47,10,3,10,0.00
2013-2-7,37.4,31.7,27.0,31.7,27.5,22.5,87,84,78,29.80,29.58,6,1,6,0.02
2013-2-8,36.7,30.6,26.5,31.1,26.0,22.0,87,83,73,29.90,29.78,6,2,6,0.01
2013-2-9,31.7,28.8,25.7,26.3,24.6,21.5,90,84,77,30.01,29.90,4,1,4,0.00
2013-2-10,32.0,28.4,25.2,25.3,22.3,19.1,87,78,66,30.01,29.86,6,1,6,0.00
2013-2-11,28.6,26.5,21.1,23.0,20.5,16.6,88,78,70,29.86,29.71,10,2,10,0.00
2013-2-12,29.2,28.3,27.4,26.9,25.1,23.0,92,88,81,29.90,29.69,11,2,11,0.04
2013-2-13,34.7,29.5,27.5,29.5,25.8,24.3,90,86,77,30.27,29.90,6,2,6,0.07
2013-2-14,34.0,30.0,28.1,29.2,26.2,24.1,89,85,81,30.27,30.06,5,1,5,0.04
2013-2-15,36.0,32.0,29.9,32.2,28.9,26.8,91,88,84,30.13,30.00,3,0,3,0.01
2013-2-16,38.7,33.7,30.2,33.3,30.2,27.2,90,87,80,30.21,30.13,5,1,5,0.00
2013-2-17,35.6,33.2,31.5,32.9,30.3,29.0,93,89,84,30.21,30.18,4,0,4,0.04
2013-2-18,36.2,32.6,31.1,31.1,29.1,28.4,90,87,82,30.18,30.05,4,0,4,0.00
2013-2-19,34.0,32.2,30.2,31.3,28.9,26.8,92,87,81,30.06,29.80,12,4,12,0.02
2013-2-20,35.6,29.5,25.9,29.9,25.3,21.8,89,84,70,30.10,29.93,8,1,8,0.02
2013-2-21,29.9,25.5,22.7,23.1,21.2,17.9,89,84,63,30.10,30.02,8,1,8,0.06
2013-2-22,25.0,23.0,20.3,22.8,19.4,15.9,91,86,78,30.03,29.82,11,2,11,0.00
2013-2-23,33.5,26.9,23.4,29.3,24.1,20.5,92,89,83,29.82,29.71,6,1,6,0.18
2013-2-24,41.4,32.2,26.3,35.6,28.9,23.8,92,88,77,29.92,29.73,3,0,3,0.44
2013-2-25,43.9,36.5,33.1,39.8,33.9,31.1,94,90,80,30.23,29.90,5,0,5,0.26
2013-2-26,37.8,35.3,32.6,35.4,33.1,30.8,94,92,88,30.34,30.22,8,2,8,0.00
2013-2-27,37.1,33.9,32.4,34.4,31.9,30.6,94,92,89,30.39,30.33,6,1,6,0.03
2013-2-28,38.7,35.1,33.1,34.3,32.2,31.1,94,89,80,30.36,30.17,3,0,3,0.00
2013-3-1,37.4,34.5,32.6,33.5,30.8,28.4,91,87,78,30.21,30.11,7,2,7,0.00
2013-3-2,43.6,33.8,27.9,34.5,28.3,23.8,87,80,68,30.24,30.10,5,2,5,0.01
2013-3-3,40.0,32.8,27.2,32.8,27.2,22.7,85,80,68,30.20,30.07,8,2,8,0.00
2013-3-4,44.6,35.2,29.2,32.8,27.5,23.5,88,75,52,30.24,30.14,9,1,9,0.00
2013-3-5,49.3,35.5,24.8,34.4,27.7,21.0,87,74,52,30.14,29.85,9,1,9,0.00
2013-3-6,52.0,37.5,27.9,37.9,30.5,24.5,90,77,52,29.86,29.64,7,1,7,0.00
2013-3-7,48.8,40.4,33.8,42.3,36.0,30.0,89,85,78,29.64,29.58,4,0,4,0.00
2013-3-8,46.8,42.6,39.2,43.8,40.2,36.3,94,91,88,29.65,29.61,5,1,5,0.00
2013-3-9,42.7,40.8,39.2,41.0,39.2,37.5,95,94,93,29.65,29.57,3,0,3,0.09
2013-3-10,55.4,45.6,38.9,47.8,41.4,36.8,95,86,69,29.57,29.43,8,2,8,0.02
2013-3-11,44.1,31.9,26.8,41.0,28.3,22.8,92,86,82,29.66,29.44,8,2,8,0.12
2013-3-12,29.5,27.5,26.1,26.1,24.0,22.3,91,87,85,29.65,29.48,6,2,6,0.00
2013-3-13,30.1,26.0,23.9,24.9,21.7,18.9,91,84,74,29.68,29.48,8,2,8,0.04
2013-3-14,32.8,26.7,22.7,23.0,18.0,14.5,84,70,48,29.79,29.68,12,2,14,0.01
2013-3-15,35.5,26.4,20.5,25.4,19.3,15.8,84,75,54,30.02,29.77,9,2,9,0.00
2013-3-16,41.2,28.6,18.5,27.7,18.5,14.3,88,68,41,30.09,30.00,11,1,11,0.00
2013-3-17,43.4,32.6,22.9,25.2,20.2,15.1,75,61,44,29.96,29.63,14,3,14,0.00
2013-3-18,41.4,33.3,28.1,33.1,27.4,22.2,93,79,64,29.63,29.21,9,2,9,0.08
2013-3-19,39.6,35.3,31.5,34.7,31.8,29.4,92,87,80,29.57,29.21,13,3,13,0.26
2013-3-20,51.5,40.7,32.8,41.6,34.7,29.6,90,80,56,29.77,29.56,10,2,10,0.05
2013-3-21,39.8,35.5,30.4,35.2,30.0,24.5,90,81,70,30.02,29.76,11,3,11,0.01
2013-3-22,31.1,29.1,25.9,25.6,23.4,21.2,84,79,69,30.04,29.99,10,2,10,0.00
2013-3-23,31.9,26.6,20.2,22.1,17.4,10.0,80,68,56,30.10,30.02,14,5,14,0.00
2013-3-24,35.5,25.2,16.4,16.7,11.0,5.4,73,56,33,30.09,29.97,16,5,16,0.00
2013-3-25,31.5,26.1,22.7,21.6,17.6,14.9,84,70,58,29.97,29.81,15,5,15,0.00
2013-3-26,32.2,27.8,24.8,18.6,13.9,8.2,75,57,38,29.81,29.74,14,5,14,0.00
2013-3-27,30.4,27.1,24.1,26.0,21.5,15.7,88,80,66,29.79,29.73,9,2,9,0.00
2013-3-28,41.2,32.4,27.2,32.4,26.6,22.8,88,80,66,29.74,28.64,6,1,6,0.03
2013-3-29,47.0,37.2,29.9,34.8,27.2,23.2,77,67,58,29.71,29.68,12,2,12,0.00
2013-3-30,46.6,35.7,29.0,31.5,26.9,22.8,83,71,48,29.71,29.63,9,2,9,0.00
2013-3-31,35.3,32.6,31.1,28.2,26.9,25.7,85,79,71,29.78,29.68,10,2,10,0.00
2013-4-1,39.8,32.9,28.6,30.3,26.2,24.1,85,76,61,29.85,29.75,7,1,7,0.00
2013-4-2,37.6,33.5,29.2,28.8,26.0,24.0,86,74,60,29.91,29.81,13,3,13,0.00
2013-4-3,37.6,33.3,31.1,27.9,26.4,24.0,82,76,66,29.94,29.91,10,2,10,0.00
2013-4-4,37.6,33.7,30.8,30.3,28.4,26.8,86,81,72,29.92,29.81,6,1,6,0.00
2013-4-5,37.6,34.8,32.6,31.9,30.4,29.2,89,84,78,29.84,29.71,7,2,7,0.00
2013-4-6,39.4,36.1,34.2,33.5,31.4,30.0,87,83,77,30.10,29.84,7,1,7,0.00
2013-4-7,40.7,35.8,30.2,31.6,30.0,24.8,88,79,63,30.12,30.02,9,1,9,0.00
2013-4-8,50.8,37.3,25.4,33.5,25.6,21.5,88,65,39,30.02,29.70,12,2,12,0.00
2013-4-9,52.2,42.6,36.4,40.2,34.6,28.0,85,74,59,29.72,29.63,11,2,11,0.08
2013-4-10,53.8,45.8,37.8,45.4,40.2,33.9,89,81,70,29.84,29.65,14,4,14,0.00
2013-4-11,58.0,50.0,43.6,48.2,42.6,37.0,81,76,64,29.84,29.63,13,5,13,0.01
2013-4-12,56.2,51.8,47.5,49.2,45.5,39.6,90,79,69,29.81,29.55,19,6,19,0.12
2013-4-13,61.9,50.8,44.1,44.2,41.0,36.5,80,70,49,30.25,29.80,16,6,16,0.00
2013-4-14,67.1,51.6,38.3,46.9,40.5,33.8,85,67,43,30.35,30.25,6,2,6,0.00
2013-4-15,75.1,58.5,43.4,46.8,40.0,34.2,81,53,30,30.30,30.14,14,3,14,0.00
2013-4-16,73.8,60.1,48.2,51.0,43.3,35.4,71,55,38,30.17,30.11,10,2,10,0.00
2013-4-17,78.3,62.4,51.7,56.7,50.0,46.2,83,65,40,30.23,30.15,5,2,5,0.00
2013-4-18,80.6,61.7,47.9,54.7,48.9,42.7,85,65,37,30.15,29.97,10,2,10,0.00
2013-4-19,62.6,57.0,49.7,52.3,46.2,39.5,83,68,46,30.24,30.04,5,2,5,0.24
2013-4-20,50.9,48.5,45.5,44.4,42.2,40.2,87,79,71,30.30,30.21,8,2,8,0.13
2013-4-21,69.3,54.7,44.1,51.6,44.5,38.2,81,69,47,30.27,29.92,12,3,12,0.00
2013-4-22,70.9,57.2,46.6,54.5,48.4,41.3,86,73,55,30.03,29.93,6,2,6,0.00
2013-4-23,63.9,54.5,50.8,50.4,45.6,42.3,82,73,50,30.22,30.03,6,2,6,0.00
2013-4-24,73.6,59.9,47.0,48.1,43.9,38.4,76,57,39,30.32,30.21,9,2,9,0.00
2013-4-25,78.8,64.7,51.5,51.8,46.7,42.9,77,54,30,30.27,30.10,7,1,7,0.00
2013-4-26,81.2,65.9,50.9,54.9,48.0,42.7,76,55,32,30.10,29.56,10,2,10,0.00
2013-4-27,67.0,58.8,48.6,55.1,50.5,44.6,87,74,59,29.70,29.56,10,3,10,0.24
2013-4-28,52.6,47.5,43.7,44.9,42.5,39.8,90,83,71,30.02,29.66,7,2,7,0.23
2013-4-29,56.2,51.3,45.4,49.0,45.9,39.9,87,82,77,30.15,29.96,6,1,6,0.00
2013-4-30,61.2,53.9,47.5,51.5,46.9,43.2,87,78,65,30.16,30.04,12,2,12,0.01
2013-5-1,56.2,51.3,47.5,50.1,46.4,44.2,89,83,78,30.23,30.09,8,2,8,0.09
2013-5-2,59.8,53.7,48.6,54.5,49.9,45.4,91,87,82,30.13,30.00,10,1,10,0.17
2013-5-3,53.8,52.0,48.8,50.0,48.4,44.9,92,88,82,30.02,29.94,7,2,7,0.19
2013-5-4,67.3,54.5,46.8,55.1,48.9,43.5,90,82,61,30.12,30.00,8,1,8,0.03
2013-5-5,65.7,57.0,49.7,54.0,50.2,45.1,89,79,61,30.24,30.12,8,2,8,0.00
2013-5-6,61.4,55.8,48.2,58.1,51.9,43.9,90,87,83,30.21,30.01,9,1,9,0.03
2013-5-7,72.4,61.8,54.7,61.4,56.8,51.8,93,84,65,30.02,29.91,13,1,13,0.06
2013-5-8,74.3,63.3,56.2,61.3,56.5,52.7,91,79,55,29.99,29.91,10,1,10,0.00
2013-5-9,73.8,63.3,54.0,63.4,57.1,50.0,89,81,65,29.97,29.86,4,1,5,0.06
2013-5-10,60.7,57.6,53.5,56.3,54.1,50.3,90,88,83,30.01,29.83,8,1,8,0.93
2013-5-11,58.7,55.1,52.2,52.1,50.3,48.4,91,84,74,30.00,29.93,3,1,3,0.03
2013-5-12,66.6,54.7,47.3,53.2,47.1,39.8,88,76,55,30.03,29.85,14,2,14,0.00
2013-5-13,60.8,50.6,42.8,47.6,43.2,37.4,83,76,58,30.06,29.97,10,2,10,0.00
2013-5-14,66.6,57.3,50.8,50.4,47.5,44.2,85,71,53,29.99,29.81,7,1,7,0.00
2013-5-15,77.6,62.8,47.5,54.7,49.2,41.9,86,64,42,29.82,29.61,14,3,14,0.00
2013-5-16,76.3,65.1,52.7,54.6,50.5,46.3,83,61,40,29.61,29.46,16,3,16,0.00
2013-5-17,75.6,65.4,59.0,58.1,53.1,48.7,74,65,51,29.55,29.46,14,3,14,0.00
2013-5-18,69.7,59.2,54.9,53.9,52.2,50.8,87,78,55,29.85,29.55,11,3,11,0.41
2013-5-19,77.2,68.6,54.7,58.5,54.8,48.7,83,63,46,29.78,29.62,15,4,15,0.51
2013-5-20,70.0,59.3,50.6,50.2,47.5,44.6,82,67,45,29.90,29.77,10,3,10,0.01
2013-5-21,68.6,57.9,49.3,50.8,46.4,42.4,80,66,47,29.91,29.78,10,2,10,0.01
2013-5-22,63.4,53.5,47.9,52.0,45.8,40.2,82,75,61,29.83,29.66,13,2,13,0.03
2013-5-23,56.5,50.0,44.3,42.4,40.1,37.2,79,69,54,29.84,29.70,6,1,6,0.00
2013-5-24,55.4,47.8,40.7,45.6,40.8,35.6,85,77,69,29.84,29.71,6,1,6,0.00
2013-5-25,55.6,48.3,43.0,47.3,42.5,37.9,86,80,70,29.84,29.78,7,1,7,0.20
2013-5-26,48.6,46.3,43.9,43.3,41.5,39.9,88,83,79,29.78,29.65,14,4,14,0.22
2013-5-27,53.8,48.9,45.2,48.3,45.0,41.9,90,86,80,29.80,29.62,9,3,9,0.14
2013-5-28,68.0,56.6,48.4,52.5,47.8,44.3,88,74,53,29.79,29.54,8,2,8,0.00
2013-5-29,64.1,54.5,46.6,55.7,49.3,42.6,89,83,66,29.67,29.51,12,1,12,0.29
2013-5-30,51.8,50.3,49.3,48.7,47.2,46.1,91,89,86,29.68,29.45,8,2,8,1.00
2013-5-31,59.8,53.3,48.1,53.6,49.6,43.7,93,88,72,29.66,29.40,12,1,12,0.35
2013-6-1,56.9,50.8,45.2,55.2,48.3,41.9,94,91,86,29.73,29.65,7,1,7,1.37
2013-6-2,55.1,51.2,48.8,53.4,48.7,45.5,94,91,87,30.04,29.68,10,2,10,1.02
2013-6-3,49.9,48.4,47.0,47.6,46.0,44.6,92,91,90,30.11,30.03,6,2,6,0.83
2013-6-4,62.5,54.3,49.1,53.8,49.9,46.4,91,85,71,30.09,30.02,9,2,9,0.01
2013-6-5,67.3,58.2,48.4,52.2,48.5,44.6,90,72,50,30.11,30.05,10,2,10,0.00
2013-6-6,65.9,59.2,53.1,56.5,52.7,48.3,87,79,70,30.15,30.09,7,1,7,0.00
2013-6-7,74.3,63.0,52.6,60.7,55.1,48.4,90,76,58,30.14,30.05,7,1,8,0.00
2013-6-8,75.1,65.8,55.4,62.6,57.3,51.1,89,75,58,30.08,29.90,8,1,8,0.00
2013-6-9,78.7,65.3,57.6,64.4,57.4,52.9,89,77,51,29.90,29.72,10,1,10,0.96
2013-6-10,63.0,59.4,56.7,59.2,55.9,52.8,90,88,86,29.87,29.71,8,0,8,0.76
2013-6-11,69.5,58.7,53.1,54.1,50.9,46.6,89,77,45,30.03,29.87,8,1,8,0.22
2013-6-12,76.9,65.1,52.4,55.6,50.1,45.7,85,61,35,30.10,30.02,7,1,7,0.08
2013-6-13,76.7,62.2,55.3,59.9,53.1,48.3,81,73,54,30.10,30.05,0,0,0,28.49
2013-6-15,82.4,72.7,63.9,59.8,57.5,54.5,72,60,45,29.96,29.90,8,1,8,0.01
2013-6-16,78.8,71.2,61.4,58.8,55.3,52.5,76,58,44,30.02,29.94,7,2,7,0.00
2013-6-17,86.8,72.5,58.7,67.1,59.8,51.5,81,66,45,30.02,29.91,10,2,10,0.00
2013-6-18,93.8,79.0,65.5,75.6,67.3,60.0,85,69,38,30.01,29.93,6,1,6,0.00
2013-6-19,91.8,80.3,68.2,75.3,67.5,62.9,86,67,43,30.01,29.88,12,2,12,0.00
2013-6-20,94.0,81.3,69.8,73.0,67.7,58.6,83,65,42,29.89,29.73,12,2,12,0.00
2013-6-21,78.5,71.9,65.3,62.5,59.9,57.9,82,67,52,29.99,29.81,13,2,13,0.00
2013-6-22,80.3,71.3,63.0,63.4,59.7,56.5,82,68,49,30.00,29.89,6,1,6,0.00
2013-6-23,76.0,69.5,62.3,61.7,57.7,50.9,80,67,52,29.94,29.84,10,1,10,0.00
2013-6-24,64.6,60.1,56.3,55.6,52.4,49.5,86,76,61,30.00,29.93,6,1,6,0.00
2013-6-25,57.2,55.0,52.2,52.9,51.0,47.5,89,87,84,30.09,29.95,8,2,8,0.00
2013-6-26,55.3,52.2,50.8,48.8,47.3,44.8,89,83,73,30.19,30.06,8,2,8,0.00
2013-6-27,63.4,55.8,50.8,51.0,47.2,44.8,82,73,58,30.19,30.09,6,1,6,0.00
2013-6-28,67.0,57.0,47.2,52.2,48.1,42.3,86,73,49,30.09,29.99,5,1,5,0.00
2013-6-29,68.6,59.4,50.0,54.2,50.4,44.7,84,73,56,30.02,29.91,7,1,7,0.00
2013-6-30,66.6,58.6,51.8,52.9,46.4,41.9,85,65,46,30.09,29.99,8,2,8,0.00
2013-7-1,76.7,65.8,54.7,55.7,50.7,45.9,73,59,42,30.03,29.90,7,1,7,0.00
2013-7-2,81.4,69.3,55.8,59.6,54.4,48.2,78,61,43,29.90,29.78,8,1,8,0.00
2013-7-3,66.6,62.7,59.6,59.1,54.7,52.1,80,75,68,29.78,28.94,4,0,4,0.00
2013-7-5,76.9,75.5,72.5,64.7,63.0,60.0,69,65,63,30.34,29.92,4,0,4,0.00
2013-7-6,73.6,66.8,59.2,64.9,59.8,54.3,87,78,65,30.36,30.30,7,1,7,0.07
2013-7-7,77.4,67.9,58.3,62.7,56.6,53.1,87,69,47,30.37,30.31,8,2,8,0.00
2013-7-8,77.4,67.7,57.2,59.0,55.3,51.5,83,66,47,30.38,30.28,9,1,9,0.00
2013-7-9,80.1,69.5,57.4,60.6,56.1,51.1,82,64,45,30.31,30.09,11,1,11,0.00
2013-7-10,80.1,70.1,59.8,62.1,57.0,53.3,82,64,45,30.09,29.91,10,1,10,0.00
2013-7-11,65.0,61.5,56.5,54.9,51.3,48.6,76,69,60,30.06,29.97,7,1,7,0.02
2013-7-12,71.8,63.5,55.8,53.7,50.8,48.6,78,65,48,30.11,30.05,7,1,7,0.00
2013-7-13,74.5,64.2,53.3,56.6,52.0,47.3,83,66,46,30.12,30.07,8,1,8,0.00
2013-7-14,76.9,66.2,55.1,57.7,53.4,48.3,81,65,44,30.13,30.06,7,1,7,0.00
2013-7-15,73.4,65.2,58.1,55.6,52.2,47.6,80,64,42,30.19,30.08,10,2,10,0.00
2013-7-16,79.7,66.9,53.3,56.1,51.5,46.6,81,60,38,30.23,30.14,6,1,6,0.00
2013-7-17,82.6,70.2,56.7,59.4,53.7,49.3,79,58,37,30.19,30.13,10,2,10,0.00
2013-7-18,82.3,71.2,59.2,59.9,55.3,51.3,79,59,38,30.19,30.11,8,2,8,0.00
2013-7-19,83.0,72.3,60.7,63.0,56.4,53.5,80,60,39,30.15,30.03,9,1,9,0.00
2013-7-20,78.5,69.3,60.8,59.5,55.5,52.0,78,63,43,30.13,30.07,8,2,8,0.00
2013-7-21,81.9,70.5,58.0,59.5,53.7,50.9,79,58,37,30.18,30.09,9,2,9,0.00
2013-7-22,86.2,72.8,58.0,59.3,52.9,48.3,76,53,28,30.10,29.89,6,1,6,0.00
2013-7-23,87.8,76.3,60.1,59.0,52.7,46.5,73,47,25,29.98,29.82,8,2,8,0.00
2013-7-24,88.6,74.7,60.3,60.9,55.1,49.5,71,53,30,29.97,29.81,9,1,9,0.01
2013-7-25,82.8,74.7,67.3,64.4,61.4,59.1,78,64,49,29.97,29.88,7,1,7,0.00
2013-7-26,89.3,74.2,65.0,66.1,61.2,58.5,81,66,39,29.98,29.84,6,1,6,0.00
2013-7-27,96.3,77.7,66.6,66.4,61.2,59.1,77,61,31,29.90,29.77,4,1,4,0.00
2013-7-28,97.6,91.2,79.7,66.0,61.9,57.3,56,39,29,29.88,29.77,9,2,9,0.00
2013-7-29,87.5,77.2,67.1,66.7,63.6,61.2,82,64,47,29.93,29.69,9,2,10,0.39
2013-7-30,77.4,69.1,63.7,63.6,58.8,55.1,82,71,51,30.04,29.88,9,2,9,0.01
2013-7-31,78.3,70.3,63.0,63.4,58.7,56.3,80,67,53,30.08,30.01,13,2,13,0.00
2013-8-1,86.4,72.7,60.3,63.1,58.7,54.4,82,64,41,30.09,29.98,5,1,5,0.00
2013-8-2,93.6,78.0,62.5,65.4,59.0,55.3,80,56,31,30.01,29.91,7,1,7,0.00
2013-8-3,98.3,81.9,65.9,63.5,58.2,51.9,70,48,22,30.02,29.91,7,1,7,0.00
2013-8-4,79.4,76.2,74.2,64.5,63.5,62.8,71,65,58,30.12,30.01,5,1,5,0.00
2013-8-5,84.6,76.4,63.7,67.2,64.2,59.9,88,67,46,30.09,29.96,8,2,8,0.00
2013-8-6,69.5,66.3,64.6,62.5,60.9,59.3,86,82,79,29.97,29.95,2,0,2,0.00
2013-8-7,85.9,81.1,74.2,70.2,67.4,63.0,76,64,54,29.86,29.76,10,2,10,0.00
2013-8-8,83.3,75.9,67.5,70.4,65.3,58.9,78,70,60,30.00,29.77,7,1,7,0.00
2013-8-9,72.9,68.2,65.0,63.6,60.0,58.3,80,75,65,30.07,29.99,8,2,8,0.00
2013-8-21,71.5,62.9,51.1,56.4,51.3,46.3,87,67,49,30.28,30.17,6,1,6,0.00
2013-8-22,74.0,61.5,50.9,56.1,50.5,45.2,84,69,44,30.17,30.05,6,1,6,0.00
2013-8-23,72.4,62.5,52.6,56.5,51.4,46.6,83,68,50,30.07,29.99,10,2,10,0.00
2013-8-24,76.7,65.1,55.1,57.3,53.4,48.7,83,67,47,30.01,29.84,9,2,9,0.00
2013-8-25,63.4,60.0,57.6,57.1,54.2,51.7,89,81,72,29.86,29.80,9,2,9,0.00
2013-8-26,63.0,58.8,57.2,58.8,55.4,53.4,92,88,82,29.95,29.83,9,2,9,0.00
2013-8-27,62.5,58.3,55.6,56.0,53.7,52.1,89,85,76,29.94,29.89,8,1,8,0.00
2013-8-28,65.2,59.9,55.8,58.3,55.3,52.2,91,85,73,30.04,29.88,4,0,4,0.00
2013-8-29,76.9,62.1,52.2,59.5,52.9,48.4,89,74,45,30.12,30.04,5,1,5,0.00
2013-8-30,77.2,63.2,51.7,58.6,52.6,46.6,86,70,44,30.12,30.03,5,1,6,0.00
2013-8-31,59.0,57.8,56.9,51.9,50.9,50.2,81,78,75,30.05,30.03,3,0,3,0.00
2013-9-10,58.1,55.4,53.1,53.5,50.6,48.3,85,84,82,29.87,29.78,6,1,6,0.00
2013-9-11,63.5,55.4,50.9,50.0,47.5,46.1,84,75,58,29.87,29.78,9,3,9,0.00
2013-9-12,60.5,55.1,52.4,51.7,48.6,46.6,84,79,67,29.87,29.75,8,2,8,0.00
2013-9-13,62.1,56.0,52.4,53.8,50.0,47.5,85,80,70,29.94,29.87,5,1,5,0.00
2013-9-14,72.4,60.4,52.9,55.5,52.0,48.8,86,75,53,29.91,29.78,7,2,7,0.00
2013-9-15,67.5,61.9,58.7,59.5,56.2,53.6,87,82,73,29.80,29.61,6,1,6,0.00
2013-9-16,59.9,57.5,54.5,56.3,52.6,50.2,88,84,76,29.61,29.40,9,2,9,0.00
2013-9-17,57.2,51.2,47.3,51.2,45.1,40.8,88,80,63,29.57,29.38,11,2,11,0.00
2013-9-18,57.8,50.5,45.0,54.5,46.5,39.5,90,86,78,29.54,29.30,12,3,13,0.00
2013-9-19,58.7,51.3,47.2,50.1,45.8,43.4,89,82,65,29.81,29.48,10,2,10,0.00
2013-9-20,60.1,53.4,49.0,53.3,48.4,44.0,87,83,76,29.93,29.78,8,2,8,0.00
2013-9-21,59.0,55.0,51.5,52.9,49.8,46.8,89,83,74,30.14,29.93,8,2,8,0.00
2013-9-22,64.8,54.1,48.4,57.4,48.6,44.7,89,82,69,30.27,30.05,6,1,6,0.00
2013-9-23,65.9,58.6,54.7,55.6,51.7,49.3,86,78,65,30.24,30.02,7,2,7,0.00
2013-9-24,67.9,59.3,54.7,54.8,51.6,49.3,82,76,61,30.09,29.88,6,2,6,0.00
2013-9-25,63.9,57.3,52.2,55.4,51.8,47.8,87,82,73,29.97,29.78,6,1,6,0.00
2013-9-26,66.6,56.6,50.0,55.4,51.3,44.7,89,83,63,30.07,29.74,7,2,7,0.00
2013-9-27,56.5,48.4,41.4,46.3,41.3,36.1,86,77,61,30.10,29.97,5,1,5,0.00
2013-9-28,61.7,47.7,36.2,48.3,38.9,31.5,88,73,48,30.05,29.91,7,1,7,0.00
2013-9-29,60.7,49.3,38.5,43.0,39.5,33.9,87,70,50,30.00,29.86,12,3,12,0.00
2013-9-30,59.6,48.3,40.0,41.7,38.6,34.6,86,70,50,29.92,29.80,11,3,11,0.00
2013-10-1,56.3,44.6,36.4,40.0,35.8,30.4,82,72,49,29.94,29.88,6,2,6,0.00
2013-10-2,41.9,41.9,41.8,36.2,36.1,36.0,80,80,80,30.20,30.20,1,1,1,0.00
2013-10-6,76.0,54.6,44.6,58.3,42.8,38.2,79,65,38,30.36,30.26,6,1,6,0.00
2013-10-7,53.6,47.1,42.5,47.2,41.9,37.0,86,82,77,30.41,30.35,4,0,4,0.00
2013-10-8,60.7,48.2,41.6,51.3,43.5,38.0,90,84,67,30.37,30.25,4,0,4,0.00
2013-10-9,54.7,49.1,42.3,49.7,44.8,38.7,90,85,82,30.26,29.97,7,1,7,0.00
2013-10-10,62.3,53.2,47.0,51.4,47.3,43.5,88,80,65,29.97,29.66,12,3,12,0.00
2013-10-11,49.7,46.5,41.9,47.0,43.7,38.4,93,90,87,30.09,29.81,8,1,8,0.00
2013-10-12,50.9,45.2,38.0,48.4,42.6,34.8,92,91,87,30.10,29.97,6,1,6,0.00
2013-10-13,59.8,48.4,42.1,48.7,43.2,38.4,92,83,64,30.16,30.03,5,1,5,0.00
2013-10-14,61.7,46.4,36.5,51.7,41.7,32.9,93,84,65,30.16,30.04,5,1,5,0.00
2013-10-15,57.6,48.7,43.2,50.6,44.2,39.9,90,84,74,30.04,29.74,10,2,10,0.00
2013-10-16,51.3,47.2,41.8,44.7,42.4,37.5,87,84,75,29.99,29.73,7,1,7,0.00
2013-10-17,57.1,47.0,38.5,49.7,42.3,34.9,91,84,75,29.99,29.88,9,3,9,0.00
2013-10-20,65.3,59.3,56.2,56.9,54.4,52.8,89,84,74,30.05,29.99,9,2,9,0.00
2013-10-21,67.9,58.0,51.5,57.9,52.8,48.6,92,83,69,30.07,30.02,7,2,7,0.00
2013-10-22,70.6,56.5,48.2,59.2,50.9,44.9,91,82,61,30.06,29.91,13,1,13,0.00
2013-10-23,65.2,57.3,51.5,57.1,52.6,48.3,91,84,74,29.98,29.84,8,2,8,0.00
2013-10-24,67.9,58.4,50.8,55.8,51.6,46.4,86,79,62,30.15,29.98,8,2,8,0.00
2013-10-25,59.0,51.1,44.3,54.6,47.6,41.0,92,88,85,30.13,30.04,4,0,4,0.00
2013-10-26,69.3,56.7,48.6,59.3,51.4,46.2,92,83,69,30.06,29.99,8,1,8,0.00
2013-10-27,66.2,58.0,51.5,53.9,49.4,45.5,89,74,53,29.99,29.74,15,4,15,0.00
2013-10-28,72.9,61.3,53.1,53.2,48.0,43.6,76,63,37,29.88,29.59,18,6,18,0.00
2013-10-29,59.6,55.1,51.1,47.8,44.7,42.8,73,68,63,30.04,29.76,13,5,13,0.00